Fairbanks Eiels, AK

2:57 PM AKDT on October 21, 2017 (GMT -0800)
Eielson Air Force Base

Weather History for PAEI - October, 2017

Change the Weather History Date:

Thursday, October 12, 2017

  Actual Average Record
Temperature  
Mean Temperature 32 °F -  
Max Temperature 43 °F 34 °F 61 °F (1969)
Min Temperature 22 °F 20 °F -8 °F (1961)
Degree Days  
Heating Degree Days 33    
Moisture  
Dew Point 26 °F    
Average Humidity 78    
Maximum Humidity 100    
Minimum Humidity 53    
Precipitation  
Precipitation 0.03 in - - ()
Sea Level Pressure  
Sea Level Pressure 30.02 in    
Wind  
Wind Speed 4 mph (ESE)    
Max Wind Speed 14 mph    
Max Gust Speed -    
Visibility 10 miles    
Events Rain    
Averages and records for this station are not official NWS values.
T = Trace of Precipitation, MM = Missing Value Source: NWS Daily Summary

Daily Weather History Graph

Daily Weather History Graph

Search for Another Location

Airport or City:

Trip Planner

Search our weather history database for the weather conditions in past years. The results will help you decide how hot, cold, wet, or windy it might be!

Date:

Astronomy

Oct. 12, 2017 Rise Set
Actual Time 8:32 AM AKDT 6:35 PM AKDT
Civil Twilight 7:43 AM AKDT 7:24 PM AKDT
Nautical Twilight 6:46 AM AKDT 8:20 PM AKDT
Astronomical Twilight 5:48 AM AKDT 9:18 PM AKDT
Moon 11:35 PM AKDT (10/12) 5:13 PM AKDT (10/12)
Length of Visible Light 11h 41m
Length of Day
10h 03m
Waning Gibbous, 47% of the Moon is Illuminated
Oct 12
Waning Gibbous
Oct 19
New
Oct 27
First Quarter
Nov 3
Full
Nov 10
Last Quarter

Hourly Weather History & Observations

Time (AKDT) Temp. Windchill Dew Point Humidity Pressure Visibility Wind Dir Wind Speed Gust Speed Precip Events Conditions
12:56 AM 26.4 °F - 25.9 °F 98% 30.25 in 10.0 mi Calm Calm - N/A   Clear
1:56 AM 26.2 °F 22.1 °F 25.7 °F 98% 30.24 in 9.0 mi ENE 3.5 mph - N/A   Clear
2:11 AM 24.8 °F - 24.8 °F 100% 30.23 in 5.0 mi Calm Calm - N/A   Clear
2:26 AM 24.8 °F - 24.8 °F 100% 30.23 in 10.0 mi Calm Calm - N/A   Clear
2:56 AM 24.3 °F - 23.7 °F 98% 30.23 in 10.0 mi Calm Calm - N/A   Clear
3:56 AM 23.9 °F - 23.2 °F 97% 30.21 in 10.0 mi Calm Calm - N/A   Clear
4:56 AM 23.5 °F 19.1 °F 22.5 °F 96% 30.20 in 10.0 mi NNE 3.5 mph - N/A   Clear
5:56 AM 22.6 °F - 21.4 °F 95% 30.18 in 10.0 mi Calm Calm - N/A   Clear
6:56 AM 22.5 °F 17.8 °F 20.7 °F 93% 30.17 in 10.0 mi NNW 3.5 mph - N/A   Clear
7:56 AM 23.4 °F 18.9 °F 21.9 °F 94% 30.15 in 10.0 mi NW 3.5 mph - N/A   Clear
8:56 AM 25.0 °F - 23.9 °F 96% 30.12 in 10.0 mi Calm Calm - N/A   Clear
9:56 AM 32.5 °F 26.2 °F 27.1 °F 80% 30.08 in 10.0 mi ESE 6.9 mph - N/A   Clear
10:56 AM 35.6 °F 28.6 °F 27.5 °F 72% 30.06 in 10.0 mi ESE 9.2 mph - N/A   Clear
11:56 AM 38.3 °F 30.9 °F 26.8 °F 63% 30.04 in 10.0 mi ESE 11.5 mph - N/A   Clear
12:56 PM 39.7 °F 32.7 °F 26.6 °F 59% 30.00 in 10.0 mi ESE 11.5 mph - N/A   Clear
1:56 PM 41.2 °F 34.1 °F 26.2 °F 55% 29.96 in 10.0 mi ESE 12.7 mph - N/A   Clear
2:56 PM 42.4 °F 35.3 °F 26.6 °F 54% 29.93 in 10.0 mi ESE 13.8 mph - N/A   Clear
3:56 PM 42.6 °F 35.9 °F 26.6 °F 53% 29.89 in 10.0 mi ESE 12.7 mph - N/A   Clear
4:56 PM 42.4 °F 36.1 °F 26.6 °F 54% 29.84 in 10.0 mi ESE 11.5 mph - N/A   Clear
5:56 PM 40.3 °F 34.9 °F 25.9 °F 56% 29.81 in 10.0 mi ESE 8.1 mph - N/A   Clear
6:56 PM 40.6 °F 34.8 °F 26.2 °F 57% 29.78 in 10.0 mi ESE 9.2 mph - N/A   Overcast
7:56 PM 40.8 °F 35.6 °F 26.8 °F 57% 29.76 in 10.0 mi ESE 8.1 mph - N/A   Scattered Clouds
8:56 PM 36.5 °F - 29.7 °F 76% 29.75 in 10.0 mi Calm Calm - N/A   Mostly Cloudy
9:56 PM 36.3 °F - 29.5 °F 76% 29.77 in 10.0 mi Calm Calm - N/A   Clear
10:56 PM 36.9 °F 31.4 °F 29.3 °F 74% 29.80 in 10.0 mi West 6.9 mph - 0.00 in   Clear
11:56 PM 36.0 °F 33.3 °F 31.8 °F 85% 29.81 in 7.0 mi South 3.5 mph - 0.03 in Rain Light Rain